Weather in Falmouth

Jamaica     18°29′12″N   77°39′01″W
temp.,
°C
wind,
m/s
gust,
m/s
humid.,
%
clouds,
%
prec.,
mm/h
press.,
hPa
HPBL,
m
7 march, sun
sun701:00+23sse128548 0.7 1015140
04:00+22s228916 0.0 1015104
07:00+22s22878 0.1 101678
10:00+26n11660 0.1 1018496
13:00+26nne44710 0.1 1016535
16:00+26nne44680 0.1 1015905
19:00+24nne34765 0.1 1016551
22:00+24ne23781 0.0 1018451
8 march, mon
mon801:00+23nne24800 0.0 1017539
04:00+23ene248015 0.0 1016474
07:00+23e48808 0.0 1018645
10:00+26ene9127418 0.1 10191096
13:00+26ene8107416 0.1 1018975
16:00+26ene7107445 0.1 10161080
19:00+25ene7107829 0.2 10171062
22:00+24ene10127929 0.3 10191019
9 march, tue
tue901:00+23ene10138157 0.5 1019973
04:00+23ene9128371 0.1 1017953
07:00+23ene9128176 0.1 1019999
10:00+23ene9118097 0.2 1020968
13:00+24ene8107793 0.3 1018977
16:00+24ene8117585 0.2 10161000
19:00+24ene8117561 0.2 10171175
22:00+24ene9127559 0.1 10181205
10 march, wed
wed1001:00+24ene8127880 0.1 10171044
04:00+24ene81180100 0.1 10161085
07:00+24ene8118198 0.6 10171087
10:00+25ene9127589 0.8 10181192
13:00+26ene9117271 1.4 10161132
16:00+26ene7107168 0.2 10141116
19:00+25e6107684 0.2 1015899
22:00+24e6108280 0.1 1017799
11 march, thu
thu1101:00+24e7118190 0.1 1016926
04:00+24ene7108264 0.4 1015899
07:00+24e7118149 0.8 1016879
10:00+26ene8107238 0.1 10181031
13:00+26ene8107236 0.3 1016988
16:00+26ene797420 0.1 1014967
19:00+24e588112 0.1 1015543
22:00+23ese47810 0.0 1016498